Theta_e
322 319 323 321 306 307 299 300 304 305 307 310 318 313 311 311 309 305 333 339 337 342 343 347 347 346 344 342 343 344 346 346 344 342 338 338 339 341 341 342 343 342 338 338 340 341 341 340 339
319 317 321 316 304 298 299 302 302 306 309 311 314 312 311 310 321 328 332 338 338 342 343 346 344 346 345 343 343 344 345 346 344 342 338 338 339 339 340 341 341 339 337 337 337 337 338 338 337
315 315 314 309 306 299 299 302 305 307 310 310 311 314 314 313 325 331 338 338 340 341 343 346 344 346 345 344 343 344 345 345 344 342 339 337 338 338 337 339 341 339 338 336 337 335 336 337 337
316 315 311 305 300 301 301 304 306 309 307 307 312 309 316 322 330 336 340 339 341 342 344 343 344 346 345 344 344 344 344 344 345 343 339 337 337 337 336 338 340 339 338 339 338 338 337 338 337
314 311 304 301 299 301 302 305 308 308 307 308 311 307 313 324 334 339 339 340 340 342 345 345 344 345 345 344 343 343 344 344 344 343 338 336 336 336 334 337 340 339 338 337 337 338 337 336 335
309 308 301 298 299 301 304 306 307 306 306 308 309 309 314 331 335 339 340 341 342 341 344 344 337 340 342 343 343 343 344 344 344 342 339 336 335 336 334 336 337 335 333 334 336 337 336 335 334
306 304 301 301 299 301 304 306 305 306 306 307 312 306 315 328 336 339 341 342 341 342 343 343 343 339 336 338 339 341 342 344 343 340 338 336 335 336 336 335 335 334 335 336 333 333 334 333 332
306 305 299 300 299 299 305 305 305 305 304 310 315 305 308 324 337 336 340 340 340 339 342 342 343 341 340 340 333 335 338 339 338 335 332 331 331 332 332 330 333 334 335 334 334 333 332 330 329
306 302 299 299 299 301 303 304 304 306 306 309 313 310 315 330 334 332 332 333 334 336 338 339 341 341 340 339 335 332 332 332 331 329 326 327 331 331 330 328 332 333 332 332 332 331 328 326 325
305 301 300 303 304 302 303 305 305 305 305 305 308 313 324 332 330 328 328 329 331 332 334 338 339 340 340 337 338 338 337 338 338 336 333 331 329 330 329 325 326 329 328 328 327 325 321 325 326
303 300 301 301 301 303 303 302 305 305 303 307 307 311 324 327 328 329 330 330 330 332 334 337 339 339 339 337 337 337 337 336 337 336 334 330 327 330 330 329 326 326 321 325 324 323 325 325 325
300 299 300 300 302 301 301 303 302 304 306 306 309 313 324 325 327 329 329 330 331 332 332 336 338 338 338 338 337 336 335 335 334 334 333 328 326 328 328 328 327 326 324 322 323 323 323 323 323
299 299 298 300 299 300 301 300 301 302 306 304 306 311 319 324 327 330 331 332 331 330 332 334 337 337 337 337 336 336 334 334 333 332 331 328 325 325 327 327 326 324 321 321 321 321 321 320 320
299 298 298 299 299 299 298 298 299 301 302 302 303 309 314 321 325 328 329 329 330 331 331 333 334 337 337 335 334 335 334 333 332 331 330 328 326 325 326 325 323 321 320 321 320 320 320 318 318
299 296 298 298 299 298 299 297 297 302 300 300 301 305 310 316 323 326 329 330 332 332 333 332 333 335 336 335 334 333 335 332 331 330 330 328 326 324 324 324 321 319 318 318 317 317 317 316 315
296 296 293 295 298 298 298 294 297 300 300 301 301 302 304 307 316 324 327 330 334 334 331 332 332 333 335 335 335 334 334 333 331 330 329 327 325 324 323 322 321 318 316 316 316 315 315 314 313
294 291 291 292 297 297 296 295 298 300 301 301 302 302 302 303 305 311 322 327 330 333 335 334 332 333 333 335 335 334 333 334 332 330 329 327 325 323 322 321 321 316 313 311 310 310 313 309 308
290 290 290 292 294 295 294 296 299 300 300 302 303 304 304 304 306 308 308 316 325 328 332 335 335 332 333 334 334 333 331 333 334 330 328 326 325 323 320 320 317 313 312 311 309 310 308 309 305
293 291 290 292 294 294 295 295 298 301 300 301 303 304 304 305 307 305 306 307 308 318 326 330 333 333 332 331 329 328 326 328 330 332 329 327 323 322 320 318 314 309 307 306 306 304 304 299 301
292 290 290 291 294 294 293 294 298 299 299 302 303 303 303 303 304 303 304 304 305 307 315 323 329 333 331 331 331 330 329 329 330 332 330 327 322 322 320 318 312 310 307 304 303 302 299 304 302
291 290 290 290 291 292 291 292 293 295 295 297 298 299 299 299 301 304 305 305 304 304 307 315 322 328 332 331 331 329 328 326 327 326 329 327 322 320 320 318 317 309 308 304 303 302 302 300 297
288 292 291 290 290 287 291 286 292 294 294 295 297 298 300 301 302 303 304 307 309 309 306 306 316 322 329 331 329 328 326 324 326 328 326 327 324 321 321 321 315 311 308 307 306 306 307 306 302
291 292 291 291 290 289 288 287 291 290 293 294 296 297 299 300 301 301 303 304 309 313 310 304 311 319 325 330 328 327 327 328 328 328 326 324 324 323 321 320 318 314 311 310 308 305 303 304 303
293 292 291 290 289 284 288 287 288 291 292 293 294 298 299 300 300 301 302 304 305 311 317 314 307 315 323 326 327 326 326 326 325 325 325 324 323 322 322 320 319 317 314 312 311 305 304 304 303
292 291 284 282 283 282 285 284 290 292 292 294 296 299 298 299 301 301 302 303 303 305 309 312 314 314 319 323 324 324 325 325 325 325 324 323 320 316 321 321 319 318 316 313 311 307 303 302 302
291 291 285 279 279 282 284 283 289 292 294 295 298 298 299 300 300 300 300 301 302 303 305 307 311 312 314 317 318 320 321 322 322 322 323 323 321 320 321 319 319 318 316 313 312 308 304 303 302
289 287 291 282 277 282 286 288 293 293 295 296 296 297 297 298 298 299 299 300 301 302 303 305 306 307 309 311 312 314 315 315 315 315 315 316 316 312 314 313 311 311 311 311 310 307 304 302 300
291 293 285 286 280 279 283 284 288 290 293 294 295 296 296 296 297 298 298 299 300 300 302 304 304 304 305 307 309 310 311 311 311 310 310 309 308 306 305 306 307 305 305 305 305 304 302 300 300
288 287 288 289 287 283 280 284 292 294 296 295 296 296 296 297 297 297 297 297 298 299 300 300 301 302 303 305 305 306 307 308 310 310 310 310 307 306 303 303 302 301 301 301 301 301 299 298 299
292 290 290 285 282 284 283 285 291 293 297 298 296 295 296 297 296 296 296 296 296 296 296 297 297 298 299 302 303 303 304 304 305 305 304 304 305 303 303 302 302 301 300 300 299 299 298 297 295
Wind_Speed
1 4 2 2 5 3 5 5 0 7 7 3 8 2 2 3 2 5 3 7 12 14 14 13 12 12 11 12 11 8 9 15 15 15 14 14 14 15 16 16 17 17 17 18 18 18 18 18 17
2 1 1 0 4 5 6 4 6 7 6 7 6 5 3 3 2 3 10 7 15 14 13 13 11 13 12 12 10 8 10 12 15 15 15 13 13 14 15 16 16 17 17 17 17 17 17 17 17
2 3 3 3 2 3 5 6 8 6 8 4 5 2 1 3 4 8 4 14 15 13 11 13 12 13 12 12 10 9 9 9 15 15 14 13 13 15 13 14 15 15 16 17 16 17 18 18 19
1 3 3 5 4 3 3 8 7 11 3 2 1 4 3 4 4 3 12 16 14 13 11 13 12 13 13 12 10 9 9 9 14 14 15 13 13 12 11 11 14 14 17 16 16 16 17 19 20
1 1 3 3 4 2 1 5 10 11 6 6 3 4 3 3 2 9 15 15 14 13 11 13 10 12 13 12 11 9 8 8 13 14 16 13 12 12 11 10 14 16 17 15 15 15 16 18 18
2 1 5 7 4 2 2 6 8 6 4 5 5 5 4 5 7 11 13 14 14 12 12 12 10 10 11 11 10 9 8 7 14 15 15 14 12 11 11 9 12 13 13 14 15 16 16 16 16
3 3 4 6 7 5 5 8 6 6 5 5 2 4 4 8 8 10 12 13 12 12 12 11 11 11 9 10 9 9 8 9 12 14 14 13 10 10 11 8 11 13 13 15 13 14 15 15 14
1 2 5 3 8 5 8 9 1 5 5 2 1 3 4 11 12 11 10 12 10 11 12 11 11 11 11 11 8 8 9 9 10 11 12 11 9 9 9 8 10 12 14 14 14 14 14 14 13
1 2 5 7 7 6 7 7 4 2 4 2 4 1 4 13 13 12 10 10 10 9 11 10 11 11 10 10 9 9 9 8 9 10 11 9 8 9 10 10 10 12 13 13 13 14 14 14 13
2 2 6 3 5 6 9 6 10 7 7 5 4 4 5 12 14 15 14 12 12 12 12 11 10 11 10 8 11 9 9 8 7 8 8 5 7 6 7 9 10 11 11 11 11 10 7 5 7
3 3 4 4 2 3 8 4 4 5 6 8 11 10 10 11 13 15 15 14 15 13 11 12 11 10 11 9 8 6 5 6 6 9 7 7 6 8 6 7 5 6 7 5 6 7 4 5 5
4 2 2 2 3 4 9 5 4 6 2 4 5 9 14 15 16 17 16 15 15 14 14 13 12 10 11 8 8 7 7 7 6 8 9 7 5 7 7 5 7 6 4 5 5 4 5 6 6
3 4 3 3 4 5 7 3 0 6 5 3 2 7 14 14 15 14 14 13 14 16 14 14 13 12 10 9 8 8 8 7 8 8 9 7 7 7 7 6 6 5 5 5 5 5 5 6 6
4 5 6 3 2 3 2 3 2 2 2 5 7 8 10 14 15 12 13 15 16 16 16 15 14 12 12 11 10 9 8 8 8 8 9 10 7 7 7 7 6 5 5 4 4 5 5 5 5
7 5 4 3 2 2 1 5 6 1 2 3 6 8 7 11 12 16 16 16 16 15 14 16 16 13 13 14 11 8 9 9 9 8 11 12 10 9 9 7 7 6 5 6 5 5 5 5 4
4 3 5 2 3 2 4 10 2 2 3 10 7 7 9 10 13 15 14 15 15 15 17 16 13 14 14 12 10 8 8 10 9 10 10 12 12 11 10 8 8 7 6 6 6 6 6 5 5
0 5 4 2 1 2 4 5 4 3 1 3 6 7 8 8 12 13 15 16 16 16 17 18 17 16 15 14 10 10 11 11 10 9 9 14 13 12 10 8 8 9 7 6 6 6 6 6 5
6 4 2 4 3 1 3 13 6 6 7 7 8 7 8 8 12 6 10 13 16 16 17 17 16 18 16 11 9 8 7 10 9 9 10 13 11 14 10 9 9 9 8 7 7 8 5 5 6
4 4 5 2 2 3 8 13 12 9 9 11 12 12 12 11 5 3 5 8 12 15 17 19 19 19 13 10 9 9 9 8 8 10 13 13 11 13 12 8 10 9 9 9 9 6 9 3 7
5 5 3 2 1 3 1 12 13 9 9 12 11 9 9 10 8 5 5 7 10 12 16 18 19 18 15 11 10 8 9 7 9 10 11 13 13 12 12 12 10 11 8 10 11 10 4 7 10
3 7 4 2 3 2 5 9 6 2 6 7 5 4 3 3 3 5 6 4 5 7 10 13 16 18 17 15 9 5 3 2 6 8 9 12 12 12 14 14 12 11 10 10 12 13 13 10 8
8 8 5 6 2 4 3 7 4 3 9 4 3 3 3 4 4 5 7 7 6 5 5 10 13 15 15 17 12 12 10 9 8 8 7 10 13 13 14 16 13 12 10 11 13 12 13 9 11
3 5 4 3 3 1 4 6 3 1 7 6 4 2 1 3 4 6 7 7 7 6 4 3 8 11 13 14 15 10 11 9 6 7 9 10 10 13 14 14 14 13 11 13 13 13 15 12 9
15 8 7 4 1 6 8 7 4 6 5 5 2 2 2 5 6 6 5 6 8 8 8 6 5 7 10 13 15 14 12 11 6 7 7 7 7 8 11 13 12 13 13 14 14 14 15 14 12
3 13 3 3 5 6 1 5 8 4 4 3 3 5 4 5 6 6 7 8 8 10 10 8 8 5 5 8 10 10 9 7 9 8 8 7 5 4 10 12 13 11 13 13 12 12 13 15 13
11 9 7 8 6 2 2 10 5 1 1 2 6 5 7 8 6 7 7 7 7 9 9 9 9 8 7 4 1 3 3 3 2 4 5 6 6 6 8 9 11 12 11 11 11 8 9 10 11
7 9 3 8 1 2 6 5 10 6 5 8 8 7 8 8 6 7 7 6 7 9 9 9 9 8 8 6 5 4 4 3 3 3 2 2 2 1 3 4 4 4 5 6 7 7 9 9 9
7 13 5 4 6 7 7 6 10 7 12 11 10 10 7 6 6 6 6 7 6 8 8 8 8 8 7 6 5 4 4 3 1 1 2 2 1 1 1 2 3 2 3 4 5 5 6 8 8
7 8 4 3 5 7 5 7 4 12 17 17 13 11 9 8 6 5 5 7 6 8 8 8 8 8 7 6 5 5 4 4 4 3 2 2 1 2 2 2 2 3 3 4 4 5 5 8 8
8 14 17 9 9 4 2 9 0 5 16 16 14 11 9 7 7 5 5 7 7 8 8 9 8 8 7 6 6 6 5 5 4 4 4 4 3 3 3 3 3 3 4 4 4 5 4 7 7
Wind_Direction
330 331 279 231 230 241 129 136 359 138 155 110 137 199 183 19 308 22 105 131 148 149 143 144 126 124 123 124 122 115 110 114 104 97 95 93 90 83 82 87 82 83 84 84 83 82 79 74 71
30 303 204 138 238 186 131 142 174 124 109 128 136 142 179 97 88 88 140 151 156 148 149 143 130 129 130 126 123 123 118 116 112 109 98 98 94 92 86 87 84 84 87 86 87 84 85 82 87
95 354 238 219 225 162 134 176 142 111 123 162 149 283 91 84 105 148 108 153 153 152 150 128 135 135 132 127 125 118 116 119 122 109 103 101 98 94 92 88 96 90 92 93 89 92 91 92 89
214 152 138 246 161 94 62 151 146 142 159 197 156 146 132 35 123 130 141 151 156 151 154 137 138 137 132 127 125 121 123 128 127 115 109 107 107 102 96 90 100 103 98 91 95 98 98 96 90
28 119 197 163 128 103 129 141 163 162 148 157 176 131 98 108 108 139 149 155 158 157 150 152 140 137 133 130 129 127 131 126 130 119 113 110 112 110 103 89 97 94 92 94 92 93 100 100 98
152 272 195 172 132 126 137 163 162 165 156 134 187 151 104 118 156 152 155 160 159 156 157 148 142 135 133 132 131 127 124 126 129 118 122 120 121 115 113 96 97 94 100 102 95 86 89 94 96
224 212 150 149 136 152 148 163 189 171 167 179 130 163 102 171 149 162 162 159 161 159 164 159 158 147 132 131 128 124 119 117 121 122 117 117 117 110 106 99 100 100 101 99 102 99 92 90 90
213 135 141 163 168 131 143 169 215 182 162 94 230 174 147 165 147 154 162 161 156 170 169 166 164 165 158 151 132 127 123 109 108 110 105 106 103 96 102 110 98 102 101 94 96 99 100 96 93
259 179 165 162 170 138 153 180 142 130 143 196 176 11 45 136 147 153 153 162 168 178 179 175 173 171 164 157 145 135 115 105 109 115 111 139 136 138 152 87 104 103 103 105 103 106 108 100 86
227 199 175 171 165 154 170 195 154 177 164 194 191 136 124 151 161 171 179 175 179 180 186 179 181 177 169 163 162 163 150 162 159 159 156 143 144 142 127 114 83 89 90 97 101 113 114 149 123
143 210 157 178 151 142 161 194 163 178 195 199 208 180 156 170 179 187 191 193 186 186 187 189 185 184 181 171 172 169 170 167 166 166 161 152 149 152 152 139 137 128 126 138 140 151 145 132 131
169 92 115 118 135 137 157 130 183 216 49 57 200 170 163 184 191 194 193 199 195 189 194 191 188 184 194 184 185 179 177 176 173 173 167 163 165 170 163 162 157 163 171 153 158 142 131 127 123
154 138 98 95 115 90 128 141 273 246 213 142 65 176 190 194 201 204 199 199 204 202 195 196 194 188 189 193 192 187 187 187 179 174 175 180 176 176 171 166 170 168 166 166 154 143 140 132 129
119 123 124 127 124 82 170 130 242 167 8 225 206 208 206 209 207 201 211 204 206 209 205 199 199 195 189 192 192 194 191 185 182 183 181 188 185 180 177 171 172 171 174 163 158 155 150 142 143
125 104 131 137 145 98 92 244 223 209 286 279 220 219 218 220 215 215 210 211 205 211 207 202 201 197 194 195 193 193 196 192 190 191 187 186 187 185 182 177 176 170 165 158 150 146 148 151 149
110 131 185 108 184 107 208 245 207 338 233 248 242 225 224 224 223 225 225 223 213 210 208 205 200 201 199 198 196 197 199 203 202 191 188 190 190 188 188 184 183 170 168 174 171 167 163 164 167
164 179 203 172 253 146 222 250 134 161 134 271 260 240 232 236 237 232 226 225 221 216 213 206 204 201 200 203 199 202 209 210 204 199 196 190 190 191 193 194 184 175 172 173 172 174 179 169 168
165 171 188 211 169 211 204 253 235 209 265 260 265 250 239 232 244 242 237 233 228 221 221 218 206 208 199 198 200 199 201 214 209 207 202 194 193 192 195 197 182 180 180 179 177 178 180 182 182
139 143 175 127 84 219 233 265 267 270 269 247 245 248 249 256 286 255 261 249 236 229 222 219 213 209 198 195 195 195 199 204 204 210 207 198 193 193 192 187 185 180 184 177 171 165 184 178 159
153 143 164 81 45 243 296 276 271 251 252 256 256 246 264 275 285 305 305 272 239 231 226 224 221 213 207 200 199 205 198 206 206 211 206 203 198 192 193 190 189 191 185 178 179 178 170 191 190
173 195 175 193 177 133 304 264 276 234 255 265 257 256 246 270 342 358 4 342 284 244 233 229 225 219 208 209 197 198 176 134 200 202 203 207 198 196 199 200 199 190 187 195 193 196 188 190 191
204 203 166 156 155 262 356 289 277 253 278 236 176 124 120 91 76 32 21 19 10 325 269 237 226 221 217 206 201 197 204 202 210 207 203 207 203 199 206 209 199 193 195 202 207 206 209 192 207
200 144 116 84 113 312 180 254 250 354 262 183 161 110 87 61 61 49 32 20 16 11 10 222 218 214 211 210 213 206 214 223 206 204 188 200 203 207 206 206 205 203 203 212 211 208 207 213 198
147 108 74 80 109 251 207 230 220 213 233 148 134 125 105 107 95 76 54 41 35 34 44 60 159 192 203 211 213 218 218 219 199 194 202 201 201 203 210 208 213 215 211 212 212 209 216 218 227
177 158 122 198 203 249 66 211 260 221 197 183 152 137 123 112 94 75 61 50 40 38 44 55 71 83 176 210 220 226 230 234 216 202 203 195 188 193 209 208 214 215 216 216 213 212 214 216 217
180 190 172 193 197 190 91 230 248 103 299 186 112 114 124 112 100 76 57 54 51 46 44 55 64 57 47 54 3 324 295 245 220 207 205 206 208 210 215 213 220 223 220 217 216 213 219 220 225
174 214 112 102 50 232 206 247 261 214 167 150 132 140 127 116 106 93 78 61 60 59 47 51 61 60 53 44 43 32 16 358 322 307 313 308 313 231 216 222 227 226 224 213 206 208 213 213 216
204 141 156 219 190 229 215 255 236 190 182 162 157 151 138 119 112 101 91 79 70 71 64 58 59 63 56 56 46 25 8 12 9 316 303 303 3 5 276 259 258 249 238 224 202 207 205 206 215
154 185 192 192 203 216 236 242 227 208 179 170 162 158 152 134 117 112 104 91 79 71 66 59 50 52 50 43 46 50 41 22 6 350 356 320 296 270 230 216 230 242 244 233 219 219 203 215 225
221 211 186 196 195 259 312 252 186 209 166 164 163 164 158 149 149 135 108 89 74 68 60 56 46 48 35 36 46 49 46 35 38 27 4 8 356 334 309 268 253 256 257 261 246 238 220 226 231